Current Version              Previous Version:    01  02  03  04  05  06  07  08  09  10  11  12  13  14  15  16  17  18  19  20  21  22  23  24  25  26  27  28  29  30  
   31  32  33  34  35  36  37  38  39  40  41  42  43  44  45  46  47  48  49  50  51  52  53  54  55  56  57  58  59  60  

[Printable]
723
ASUS44 KFWD 271303
RWRTX
NORTH TEXAS HOURLY WEATHER ROUNDUP
NATIONAL WEATHER SERVICE FORT WORTH TX
700 AM CST THU NOV 27 2014

NOTE: "FAIR" INDICATES FEW OR NO CLOUDS BELOW 12,000 FEET WITH NO
SIGNIFICANT WEATHER AND/OR OBSTRUCTIONS TO VISIBILITY.

TXZ118-119-271400-
DALLAS/FORT WORTH METROPLEX

CITY           SKY/WX    TMP DP  RH WIND       PRES   REMARKS
DFW AIRPORT    CLEAR     37  27  67 NE8       30.50R WCI  31
DALLAS LOVE    PTCLDY    40  27  59 N3        30.51R
FTW MEACHAM    CLEAR     37  28  70 N7        30.50R WCI  32
DAL-EXECUTIVE  CLEAR     42  25  50 NE8       30.50R WCI  37
FTW-ALLIANCE   CLEAR     33  26  75 N5        30.50R WCI  29
FTW-SPINKS     CLEAR     36  28  75 CALM      30.51S
ARLINGTON      CLEAR     41  26  55 N8        30.50R WCI  36
ADDISON        CLEAR     39  27  60 NE6       30.51R WCI  35
MESQUITE       CLEAR     39  27  60 N7        30.50  WCI  34
LANCASTER      CLEAR     38  25  58 N5        30.52R WCI  35
$$

TXZ091>094-102>105-117-120-121-131>134-271400-
NORTH CENTRAL TEXAS

CITY           SKY/WX    TMP DP  RH WIND       PRES   REMARKS
SHRMAN/DENISON CLEAR     35  28  74 NE3       30.52R
BRIDGEPORT     CLEAR     31  26  81 CALM      30.53R
DECATUR        CLEAR     34  26  71 NE7       30.49R WCI  28
DENTON         CLEAR     32  26  78 W5        30.52R WCI  27
MCKINNEY       CLEAR     36  26  67 NE9       30.50S WCI  29
ROCKWALL       CLEAR     37  28  70 NE9       30.49R WCI  30
TERRELL        CLEAR     38  27  64 N8        30.51R WCI  32
WAXAHACHIE     CLEAR     36  29  75 NE5       30.50S WCI  32
CLEBURNE       CLEAR     36  28  75 W3        30.52R
GRANBURY       CLEAR     35  29  80 W5        30.53R WCI  31
$$

TXZ083>090-098>101-113>116-127>130-139>142-154-155-271400-
WESTERN NORTH TEXAS

CITY           SKY/WX    TMP DP  RH WIND       PRES   REMARKS
WICHITA FALLS  CLEAR     31  25  78 N7        30.51R WCI  24
WF-KICKAPOO    CLEAR     34  26  71 CALM      30.52S
ABILENE        CLEAR     38  26  62 CALM      30.49R
ABILENE-DYESS  CLEAR     33  28  83 W3        30.49R
MINERAL WELLS  CLEAR     35  27  72 CALM      30.50R
STEPHENVILLE   CLEAR     37  28  71 N5        30.51S WCI  33
COMANCHE       CLEAR     39  31  72 CALM      30.50R
COLEMAN        CLEAR     36  32  87 NE5       30.49R WCI  32
$$

TXZ143>147-156>162-174-175-271400-
CENTRAL TEXAS

CITY           SKY/WX    TMP DP  RH WIND       PRES   REMARKS
WACO           CLEAR     37  30  75 N6        30.51R WCI  32
WACO-TSTC      CLEAR     39  30  70 N5        30.52  WCI  36
WACO-MCGREGOR  CLEAR     37  28  70 N6        30.51R WCI  33
CORSICANA      CLEAR     38  28  67 N5        30.51R WCI  34
MEXIA          CLEAR     38  29  69 N5        30.49R WCI  35
HEARNE         CLEAR     43  32  64 N5        30.50R
TEMPLE         CLEAR     37  27  65 N7        30.48S WCI  32
KILLEEN        CLEAR     38  32  79 N9        30.49R WCI  31
KILLEEN-SKYLRK CLEAR     39  27  60 N6        30.48R WCI  35
FORT HOOD      CLEAR     43  31  62 N6        30.49R WCI  39
GATESVILLE     CLEAR     39  30  70 CALM      30.52R
HAMILTON       CLEAR     35  30  80 NW3       30.50R
LAMPASAS       CLEAR     39  32  77 N3        30.48R
$$

TXZ095>097-106>112-122>126-135>138-148>153-164>167-271400-
EAST TEXAS

CITY           SKY/WX    TMP DP  RH WIND       PRES   REMARKS
PARIS          CLEAR     36  25  64 N7        30.53R WCI  30
SULPHUR SPRNGS CLEAR     38  28  67 N13       30.52S WCI  30
MOUNT PLEASANT CLEAR     37  28  71 N6        30.53R WCI  32
MINEOLA        CLEAR     39  28  65 NE3       30.51R
TYLER          CLEAR     40  27  59 N7        30.49R WCI  35
LONGVIEW       CLEAR     41  27  57 N7        30.49R WCI  36
MARSHALL       CLEAR     41  30  64 N6        30.52R WCI  38
ATHENS         CLEAR     37  28  70 N6        30.48R WCI  33
PALESTINE      CLEAR     41  31  67 N6        30.50R WCI  37
JACKSONVILLE   CLEAR     41  30  66 NE8       30.48S WCI  36
HENDERSON      CLEAR     38  30  70 CALM      30.50R
NACOGDOCHES    CLEAR     41  28  60 N9        30.47R WCI  35
$$

SUPPLEMENTAL OBSERVATIONS (CENTRAL)

CITY           SKY/WX    TMP DP  RH WIND       PRES   REMARKS
$$

SUPPLEMENTAL OBSERVATIONS (WEST)

CITY           SKY/WX    TMP DP  RH WIND       PRES   REMARKS
$$

SUPPLEMENTAL OBSERVATIONS (EAST)

CITY           SKY/WX    TMP DP  RH WIND       PRES   REMARKS
$$

SUPPLEMENTAL OBSERVATIONS ARE A COLLECTION OF AUTOMATED INSTRUMENTS
THAT ARE MAINTAINED BY A VARIETY OF FEDERAL AND STATE AGENCIES.
CERTAIN ELEMENTS...SUCH AS HUMIDITY VALUES AND SUSTAINED WIND
SPEEDS...MAY BE APPROXIMATED.